Weather History for Alliance, NE

Change the Weather History Date:

Thursday, March 28, 2013

  Actual Average Record
Temperature  
Mean Temperature 46 °F 40 °F  
Max Temperature 67 °F 55 °F 79 °F (1988)
Min Temperature 24 °F 26 °F -7 °F (1931)
Degree Days  
Heating Degree Days 19 25  
Month to date heating degree days 851 810  
Since 1 July heating degree days 5964 6214  
Cooling Degree Days 0 0  
Month to date cooling degree days 0 0  
Year to date cooling degree days 0 0  
Moisture  
Dew Point 25 °F    
Average Humidity 55    
Maximum Humidity 92    
Minimum Humidity 18    
Precipitation  
Precipitation 0.00 in 0.06 in 0.68 in (1918)
Month to date precipitation T 0.67  
Year to date precipitation 0.52 1.23  
Sea Level Pressure  
Sea Level Pressure 30.04 in    
Wind  
Wind Speed 8 mph (ESE)    
Max Wind Speed 16 mph    
Max Gust Speed 21 mph    
Visibility 10 miles    
Events      
T = Trace of Precipitation, MM = Missing Value Source: NWS Daily Summary

Daily Weather History Graph

Daily Weather History Graph

Search for Another Location

Airport:

Trip Planner

Search our weather history database for the weather conditions in past years. The results will help you decide how hot, cold, wet, or windy it might be!

Date:

Astronomy

Mar. 28, 2013 Rise Set
Actual Time 6:40 AM MDT 7:12 PM MDT
Civil Twilight 6:12 AM MDT 7:40 PM MDT
Nautical Twilight 5:39 AM MDT 8:14 PM MDT
Astronomical Twilight 5:04 AM MDT 8:48 PM MDT
Moon 9:09 PM MDT (3/28) 7:07 AM MDT (3/28)
Length of Visible Light 13h 28m
Length of Day
12h 32m
Full, 98% of the Moon is Illuminated
Mar 28
Full
Apr 2
Last Quarter
Apr 10
New
Apr 18
First Quarter
Apr 25
Full

Hourly Weather History & Observations

Time (MDT) Temp. Windchill Dew Point Humidity Pressure Visibility Wind Dir Wind Speed Gust Speed Precip Events Conditions
12:53 AM 32.0 °F 24.8 °F 25.0 °F 75% 30.07 in 10.0 mi South 8.1 mph - N/A   Clear
1:53 AM 30.9 °F 25.2 °F 24.1 °F 76% 30.06 in 10.0 mi SSE 5.8 mph - N/A   Clear
2:53 AM 28.0 °F 19.3 °F 23.0 °F 81% 30.05 in 10.0 mi SSE 9.2 mph - N/A   Clear
3:53 AM 33.1 °F 26.9 °F 27.0 °F 78% 30.02 in 10.0 mi SSE 6.9 mph - N/A   Mostly Cloudy
4:53 AM 30.9 °F 24.3 °F 26.1 °F 82% 30.02 in 10.0 mi SSE 6.9 mph - N/A   Overcast
5:53 AM 27.0 °F 18.0 °F 24.1 °F 89% 30.03 in 10.0 mi SSE 9.2 mph - N/A   Clear
6:53 AM 25.0 °F 16.3 °F 21.9 °F 88% 30.06 in 10.0 mi South 8.1 mph - N/A   Clear
7:53 AM 34.0 °F - 28.9 °F 82% 30.08 in 10.0 mi Calm Calm - N/A   Clear
8:53 AM 44.1 °F 40.8 °F 30.9 °F 60% 30.05 in 10.0 mi West 5.8 mph - N/A   Clear
9:53 AM 51.1 °F - 30.9 °F 46% 30.03 in 10.0 mi WNW 10.4 mph - N/A   Clear
10:53 AM 57.9 °F - 28.9 °F 33% 30.04 in 10.0 mi NW 10.4 mph - N/A   Clear
11:53 AM 62.1 °F - 28.9 °F 29% 30.02 in 10.0 mi NNE 9.2 mph - N/A   Clear
12:53 PM 64.0 °F - 24.1 °F 22% 30.01 in 10.0 mi WSW 10.4 mph 17.3 mph N/A   Partly Cloudy
1:53 PM 63.0 °F - 23.0 °F 22% 30.01 in 10.0 mi NE 6.9 mph 20.7 mph N/A   Mostly Cloudy
2:53 PM 66.9 °F - 21.0 °F 17% 30.00 in 10.0 mi NNW 12.7 mph 16.1 mph N/A   Mostly Cloudy
3:53 PM 63.0 °F - 23.0 °F 22% 30.00 in 10.0 mi NNE 8.1 mph 20.7 mph N/A   Mostly Cloudy
4:53 PM 63.0 °F - 21.9 °F 21% 30.00 in 10.0 mi North 6.9 mph - N/A   Overcast
5:53 PM 64.0 °F - 21.9 °F 20% 30.02 in 10.0 mi NNE 9.2 mph - N/A   Mostly Cloudy
6:53 PM 55.9 °F - 23.0 °F 28% 30.06 in 10.0 mi East 8.1 mph - N/A   Clear
7:53 PM 45.0 °F 39.7 °F 24.1 °F 44% 30.08 in 10.0 mi East 10.4 mph - N/A   Clear
8:53 PM 39.9 °F 35.1 °F 23.0 °F 51% 30.09 in 10.0 mi ESE 6.9 mph - N/A   Clear
9:53 PM 36.0 °F 31.1 °F 23.0 °F 59% 30.10 in 10.0 mi ESE 5.8 mph - N/A   Clear
10:53 PM 37.0 °F 31.6 °F 24.1 °F 59% 30.09 in 10.0 mi SSE 6.9 mph - N/A   Partly Cloudy
11:53 PM 39.9 °F 37.8 °F 25.0 °F 55% 30.07 in 10.0 mi ESE 3.5 mph - N/A   Clear